Tracking 28126 objects as of 2-Oct-2023
HD Live streaming from Space Station
objects crossing your sky now

STARLINK-3194

Track STARLINK-3194 now!
10-day predictions
STARLINK-3194 is classified as:


NORAD ID: 49758
Int'l Code: 2021-115AL
Perigee: 546.0 km
Apogee: 547.6 km
Inclination: 53.2 °
Period: 95.4 minutes
Semi major axis: 6917 km
RCS: Unknown
Launch date: December 2, 2021
Source: United States (US)
Launch site: AIR FORCE EASTERN TEST RANGE (AFETR)
Your satellite tracking list
Your tracking list is empty




NASA's NSSDC Master Catalog

Two Line Element Set (TLE):
1 49758U 21115AL  23275.02404267  .00022497  00000-0  14260-2 0  9996
2 49758  53.2151 172.9883 0001226  80.6689 279.4442 15.08867489102470
Source of the keplerian elements: AFSPC